[[{"header":{"parameterUnit":"m.s-1","parameterCategory":2,"la1":30.2992,"la2":30.254,"lo1":-89.0895,"lo2":-89.0443,"dy":0.0025,"dx":0.0025,"nx":19,"ny":19,"refTime":"2026-04-06T21:00:00:Z","depth":"0","parameterNumber":2,"parameterNumberName":"U-component_of_CURRENTS"},"data":[0,0,0,0.188,0.1882,0.1968,0.1968,0.2052,0.2053,0,0,0,0,0,0,0,0,0,0,0,0.1844,0.1845,0.188,0.1882,0.1968,0.1968,0.2052,0.2053,0,0,0,0,0,0,0,0,0,0,0,0.1844,0.1845,0.1845,0.1882,0.1968,0.1968,0.2052,0.1993,0,0,0,0,0,0,0,0,0,0,0.1912,0.1877,0.1845,0.1845,0.1883,0.1968,0.1968,0.199,0.1996,0.2006,0,0.202,0,0.2042,0.2058,0.2058,0,0,0,0.188,0.1872,0.1904,0.1845,0.1884,0.1968,0.1929,0.1994,0.2001,0.2014,0.2021,0.2025,0.2043,0.2058,0.2059,0.216,0.2161,0,0,0.1875,0.1852,0.1899,0.1908,0.1906,0.1926,0.1931,0.1998,0.2,0.2021,0.2027,0.2044,0.2059,0.206,0.216,0.216,0,0,0,0.1863,0.1849,0.1879,0.1904,0.1924,0.1928,0.1935,0.1997,0.201,0.2028,0.2045,0.2059,0.206,0.2159,0.216,0.2201,0,0,0,0.186,0.1842,0.1877,0.1863,0.1923,0.1964,0.1931,0.2005,0.2013,0.2045,0.2059,0.2061,0.2159,0.216,0.2199,0.2221,0,0,0,0.184,0.184,0.1852,0.1862,0.1902,0.1964,0.198,0.2007,0.2024,0.2058,0.2061,0.2158,0.2159,0.2196,0.2217,0.2312,0,0,0,0.1811,0.1834,0.1851,0.1886,0.1902,0.1979,0.198,0.2031,0.2062,0.206,0.2159,0.216,0.2196,0.2215,0.2309,0.2366,0.2386,0,0,0.1826,0.1835,0.1858,0.1877,0.1947,0.1967,0.2044,0.2078,0.2085,0.2133,0.2136,0.2199,0.2217,0.2311,0.2439,0.2457,0,0,0,0.1855,0.1872,0.1897,0.1941,0.1995,0.2058,0.2094,0.2117,0.2169,0.211,0.2214,0.2224,0.2282,0.231,0.2325,0.2321,0.2166,0.2166,0.2166,0.1848,0.1887,0.1935,0.1995,0.2045,0.2124,0.2177,0.2217,0.221,0.2241,0.2268,0.238,0.2409,0.2421,0.2416,0.2277,0.2277,0.2278,0.2278,0.188,0.1903,0.1964,0.2022,0.2094,0.2159,0.2258,0.2276,0.2375,0.2325,0.2381,0.2363,0.244,0.2428,0.2281,0.228,0.228,0.2279,0.2279,0.1868,0.1881,0.1929,0.2006,0.2091,0.2176,0.2287,0.237,0.2417,0.2472,0.2542,0.2542,0.2527,0.2516,0.2517,0.2518,0.2518,0.2518,0.2519,0.1821,0.1871,0.1902,0.1986,0.2034,0.2146,0.2315,0.241,0.2565,0.2607,0.2608,0.2573,0.2454,0.2439,0.2527,0.2525,0.2524,0.2524,0.2523,0.1787,0.1802,0.1845,0.1889,0.2003,0.2083,0.2279,0.2528,0.2655,0.2745,0.2771,0.2696,0.2701,0.2688,0.268,0.2825,0.2825,0.2825,0.2825,0.1745,0.1759,0.1799,0.1847,0.1935,0.2054,0.2196,0.2415,0.2711,0.2826,0.2892,0.2828,0.2816,0.2823,0.2807,0.2799,0.2971,0.2971,0.2971,0.1721,0.174,0.1744,0.1795,0.1894,0.1998,0.2089,0.2252,0.2695,0.2973,0.288,0.2874,0.277,0.2752,0.2746,0.2725,0.2704,0,0]},{"header":{"parameterUnit":"m.s-1","parameterCategory":2,"la1":30.2992,"la2":30.254,"lo1":-89.0895,"lo2":-89.0443,"dy":0.0025,"dx":0.0025,"nx":19,"ny":19,"refTime":"2026-04-06T21:00:00:Z","depth":"0","parameterNumber":3,"parameterNumberName":"V-component_of_CURRENTS"},"data":[0,0,0,-0.0421,-0.0421,-0.0451,-0.0451,-0.0531,-0.0532,0,0,0,0,0,0,0,0,0,0,0,-0.0408,-0.0408,-0.0421,-0.0421,-0.0451,-0.0451,-0.0531,-0.0532,0,0,0,0,0,0,0,0,0,0,0,-0.0408,-0.0408,-0.0408,-0.0421,-0.0451,-0.0451,-0.0531,-0.05,0,0,0,0,0,0,0,0,0,0,-0.0467,-0.0441,-0.0408,-0.0408,-0.0421,-0.0451,-0.0451,-0.0499,-0.0502,-0.0526,0,-0.0521,0,-0.0526,-0.0537,-0.0538,0,0,0,-0.0431,-0.0438,-0.0449,-0.0408,-0.0421,-0.0451,-0.044,-0.05,-0.0505,-0.0531,-0.0522,-0.0525,-0.0527,-0.0538,-0.0538,-0.0589,-0.0589,0,0,-0.043,-0.0415,-0.0446,-0.0451,-0.0418,-0.0439,-0.0441,-0.0503,-0.0501,-0.0523,-0.0527,-0.0529,-0.0538,-0.0539,-0.0589,-0.0589,0,0,0,-0.0418,-0.0414,-0.0423,-0.0448,-0.0449,-0.044,-0.0442,-0.0499,-0.0502,-0.0528,-0.0529,-0.0539,-0.054,-0.0589,-0.0589,-0.051,0,0,0,-0.0417,-0.0407,-0.0422,-0.0414,-0.0447,-0.0467,-0.0437,-0.0498,-0.0505,-0.0529,-0.0539,-0.0541,-0.0589,-0.0589,-0.0512,-0.0432,0,0,0,-0.0409,-0.0406,-0.0406,-0.0413,-0.0422,-0.0466,-0.0473,-0.0499,-0.0506,-0.0538,-0.0541,-0.0589,-0.0589,-0.0514,-0.0438,-0.0382,0,0,0,-0.0399,-0.0364,-0.0406,-0.0371,-0.0422,-0.0416,-0.0473,-0.048,-0.05,-0.0539,-0.0589,-0.0589,-0.0514,-0.0441,-0.0386,-0.0219,-0.0189,0,0,-0.0344,-0.0357,-0.0337,-0.0374,-0.0343,-0.0413,-0.0399,-0.0453,-0.0512,-0.0574,-0.0575,-0.0511,-0.0438,-0.0383,-0.0213,-0.0183,0,0,0,-0.0312,-0.0296,-0.0294,-0.0291,-0.0311,-0.0327,-0.0392,-0.0434,-0.0493,-0.0522,-0.0532,-0.0487,-0.0455,-0.0363,-0.034,-0.0433,-0.0588,-0.0588,-0.0588,-0.0215,-0.0232,-0.0194,-0.0216,-0.0221,-0.0276,-0.0299,-0.0374,-0.0446,-0.0469,-0.044,-0.0361,-0.0264,-0.0244,-0.0344,-0.0484,-0.0484,-0.0483,-0.0483,-0.0126,-0.0101,-0.0126,-0.0097,-0.013,-0.0135,-0.022,-0.0276,-0.0311,-0.0392,-0.0366,-0.0304,-0.0212,-0.0329,-0.0478,-0.0479,-0.048,-0.048,-0.0481,-0.0062,-0.0049,-0.0043,-0.0011,0.0007,-0.0043,-0.0004,-0.0101,-0.0207,-0.0188,-0.0098,-0.0098,-0.0183,-0.0182,-0.0181,-0.018,-0.018,-0.018,-0.0179,0.0004,0.0011,0.0061,0.0082,0.0118,0.0157,0.0124,0.0124,0.0101,0.0038,0.0038,-0.0154,-0.0268,-0.026,-0.017,-0.0172,-0.0173,-0.0174,-0.0174,0.0085,0.0087,0.0169,0.0213,0.0307,0.0442,0.04,0.048,0.0434,0.0469,0.0174,0.0143,0.0145,0.0126,0.0143,0.0331,0.0331,0.0331,0.0332,0.0146,0.0148,0.0277,0.0373,0.0494,0.0577,0.0813,0.0839,0.0628,0.0494,0.0323,0.0261,0.0244,0.0243,0.0222,0.0237,0.0444,0.0444,0.0444,0.0204,0.0237,0.0349,0.0439,0.0581,0.0765,0.1033,0.1158,0.0785,0.0427,0.0158,0.0153,0.0029,0.0011,-0.0022,-0.0045,-0.0033,0,0]}],[{"header":{"parameterUnit":"m.s-1","parameterCategory":2,"la1":30.2992,"la2":30.254,"lo1":-89.0895,"lo2":-89.0443,"dy":0.0025,"dx":0.0025,"nx":19,"ny":19,"refTime":"2026-04-06T21:00:00:Z","depth":"2","parameterNumber":2,"parameterNumberName":"U-component_of_CURRENTS"},"data":[0,0,0,0.1936,0.1937,0.2006,0.2006,0.2094,0.2095,0,0,0,0,0,0,0,0,0,0,0,0.1912,0.1912,0.1936,0.1937,0.2006,0.2006,0.2094,0.2095,0,0,0,0,0,0,0,0,0,0,0,0.1912,0.1912,0.1912,0.1937,0.2006,0.2006,0.2094,0.2043,0,0,0,0,0,0,0,0,0,0,0.1977,0.1951,0.1912,0.1912,0.1938,0.2006,0.2006,0.2041,0.2046,0.2061,0,0.207,0,0.2083,0.21,0.21,0,0,0,0.1942,0.1946,0.1966,0.1913,0.1938,0.2006,0.1976,0.2044,0.205,0.2068,0.2071,0.2075,0.2084,0.2101,0.2101,0.2232,0.2233,0,0,0.1939,0.1925,0.1962,0.197,0.1954,0.1974,0.1979,0.2048,0.2052,0.2072,0.2077,0.2086,0.2101,0.2102,0.2231,0.2232,0,0,0,0.1924,0.1922,0.194,0.1966,0.1978,0.1976,0.1981,0.2049,0.2056,0.2078,0.2087,0.2102,0.2103,0.223,0.2231,0.2287,0,0,0,0.1922,0.1913,0.1939,0.1931,0.1976,0.2014,0.1981,0.2051,0.2059,0.2086,0.2102,0.2103,0.2229,0.2231,0.2284,0.23,0,0,0,0.1909,0.1912,0.1919,0.193,0.1958,0.2013,0.2024,0.2053,0.2065,0.2101,0.2104,0.2229,0.2231,0.2281,0.2295,0.2367,0,0,0,0.1893,0.1904,0.1919,0.1941,0.1957,0.2021,0.2024,0.2072,0.2105,0.2102,0.2229,0.2231,0.228,0.2292,0.2364,0.227,0.2279,0,0,0.1897,0.1904,0.1919,0.1934,0.1986,0.2011,0.2089,0.2127,0.2142,0.2205,0.2208,0.2285,0.2295,0.2367,0.2384,0.2389,0,0,0,0.1914,0.1924,0.1944,0.1978,0.2026,0.2098,0.2136,0.2176,0.2255,0.217,0.231,0.2314,0.2358,0.2294,0.2299,0.2241,0.224,0.224,0.224,0.1897,0.193,0.1966,0.202,0.2068,0.2162,0.2234,0.2301,0.2298,0.2354,0.2378,0.2495,0.2428,0.2431,0.2404,0.2404,0.2405,0.2405,0.2405,0.1898,0.1912,0.198,0.2025,0.2115,0.2188,0.233,0.237,0.25,0.2464,0.2504,0.2378,0.2439,0.241,0.2409,0.2408,0.2408,0.2407,0.2407,0.1867,0.1878,0.1922,0.1994,0.2097,0.2207,0.234,0.2454,0.2541,0.2605,0.2547,0.2544,0.2522,0.2632,0.2632,0.2633,0.2633,0.2633,0.2633,0.1802,0.1849,0.1882,0.1968,0.2021,0.2151,0.2353,0.2448,0.256,0.2604,0.2603,0.2571,0.2564,0.2537,0.264,0.2639,0.2638,0.2637,0.2637,0.1741,0.1769,0.1802,0.185,0.1976,0.2032,0.224,0.2399,0.2533,0.2565,0.2613,0.2611,0.2587,0.258,0.2554,0.2656,0.2656,0.2656,0.2656,0.1689,0.171,0.1739,0.1788,0.1869,0.1981,0.2031,0.2178,0.238,0.2453,0.2462,0.2367,0.2371,0.2328,0.2328,0.2294,0.2328,0.2328,0.2327,0.1649,0.1668,0.1664,0.1728,0.1805,0.1881,0.1854,0.1879,0.2086,0.2312,0.2386,0.2637,0.2516,0.2515,0.2462,0.2457,0.2407,0,0]},{"header":{"parameterUnit":"m.s-1","parameterCategory":2,"la1":30.2992,"la2":30.254,"lo1":-89.0895,"lo2":-89.0443,"dy":0.0025,"dx":0.0025,"nx":19,"ny":19,"refTime":"2026-04-06T21:00:00:Z","depth":"2","parameterNumber":3,"parameterNumberName":"V-component_of_CURRENTS"},"data":[0,0,0,-0.0089,-0.0089,-0.016,-0.016,-0.0251,-0.0252,0,0,0,0,0,0,0,0,0,0,0,-0.0073,-0.0074,-0.0088,-0.0089,-0.016,-0.016,-0.0251,-0.0252,0,0,0,0,0,0,0,0,0,0,0,-0.0073,-0.0073,-0.0074,-0.009,-0.016,-0.016,-0.0251,-0.0202,0,0,0,0,0,0,0,0,0,0,-0.0136,-0.0108,-0.0073,-0.0074,-0.009,-0.0159,-0.016,-0.02,-0.0205,-0.0213,0,-0.0218,0,-0.0224,-0.0256,-0.0256,0,0,0,-0.011,-0.0103,-0.0124,-0.0074,-0.009,-0.0159,-0.0134,-0.0203,-0.0209,-0.022,-0.022,-0.0223,-0.0226,-0.0256,-0.0257,-0.0288,-0.0288,0,0,-0.0106,-0.0087,-0.012,-0.0127,-0.0101,-0.0131,-0.0136,-0.0207,-0.0209,-0.022,-0.0225,-0.0227,-0.0257,-0.0257,-0.0288,-0.0288,0,0,0,-0.0081,-0.0084,-0.0104,-0.0123,-0.0129,-0.0133,-0.0138,-0.0206,-0.0213,-0.0226,-0.0228,-0.0257,-0.0258,-0.0288,-0.0288,-0.0206,0,0,0,-0.008,-0.0069,-0.0102,-0.0092,-0.0127,-0.0165,-0.0135,-0.0208,-0.0216,-0.0228,-0.0257,-0.0258,-0.0288,-0.0288,-0.0208,-0.0142,0,0,0,-0.0071,-0.0068,-0.0074,-0.0091,-0.0111,-0.0164,-0.0176,-0.0211,-0.0216,-0.0256,-0.0259,-0.0289,-0.0288,-0.0211,-0.0147,-0.0106,0,0,0,-0.0054,-0.0038,-0.0074,-0.0052,-0.011,-0.0113,-0.0176,-0.0196,-0.0225,-0.0257,-0.0288,-0.0288,-0.0211,-0.015,-0.0109,-0.0012,0.0011,0,0,-0.0019,-0.0034,-0.0019,-0.0051,-0.0025,-0.0105,-0.008,-0.0152,-0.0225,-0.0269,-0.027,-0.0207,-0.0147,-0.0107,0.0006,0.0029,0,0,0,0.0003,0.0014,0.0015,0.002,-0.0001,-0.0018,-0.0082,-0.0132,-0.0204,-0.0237,-0.0224,-0.0189,-0.0166,-0.0115,-0.0097,-0.0287,-0.0287,-0.0287,-0.0287,0.0069,0.0066,0.01,0.0091,0.0088,0.0043,0.0015,-0.0067,-0.0136,-0.0174,-0.0135,-0.0062,-0.0009,0.0006,-0.0169,-0.0168,-0.0168,-0.0168,-0.0168,0.0146,0.0172,0.0169,0.0195,0.0173,0.0177,0.01,0.0037,-0.0004,-0.0091,-0.0074,-0.0047,0.0031,-0.0161,-0.0163,-0.0163,-0.0164,-0.0165,-0.0165,0.0199,0.0212,0.0221,0.0266,0.0285,0.0253,0.0292,0.0206,0.0082,0.0102,0.0136,0.0135,0.001,0.0103,0.0103,0.0104,0.0104,0.0104,0.0105,0.0246,0.0261,0.0304,0.0338,0.0373,0.0417,0.0393,0.0393,0.0344,0.0256,0.0256,0.0029,0.002,0.0024,0.0112,0.0111,0.011,0.0109,0.0109,0.0316,0.031,0.039,0.043,0.0533,0.0644,0.062,0.0651,0.0609,0.0606,0.033,0.0322,0.031,0.0294,0.0304,0.0459,0.0459,0.0459,0.0459,0.0359,0.0362,0.0472,0.0565,0.0688,0.0754,0.09,0.0865,0.0714,0.0582,0.0576,0.0529,0.0513,0.0507,0.0487,0.0498,0.0704,0.0704,0.0704,0.0412,0.0437,0.0529,0.0611,0.0753,0.0896,0.1024,0.0991,0.0782,0.0708,0.0561,0.0487,0.0399,0.0382,0.0351,0.0327,0.0336,0,0]}],[{"header":{"parameterUnit":"m.s-1","parameterCategory":2,"la1":30.2992,"la2":30.254,"lo1":-89.0895,"lo2":-89.0443,"dy":0.0025,"dx":0.0025,"nx":19,"ny":19,"refTime":"2026-04-06T21:00:00:Z","depth":"4","parameterNumber":2,"parameterNumberName":"U-component_of_CURRENTS"},"data":[0,0,0,0.1231,0.1234,0.137,0.1371,0.1482,0.1483,0,0,0,0,0,0,0,0,0,0,0,0.1188,0.1189,0.1231,0.1234,0.137,0.1371,0.1482,0.1483,0,0,0,0,0,0,0,0,0,0,0,0.1188,0.1189,0.119,0.1235,0.137,0.1371,0.1482,0.1395,0,0,0,0,0,0,0,0,0,0,0.127,0.1244,0.1189,0.119,0.1235,0.137,0.1371,0.1391,0.14,0.1402,0,0.1432,0,0.1457,0.1489,0.1489,0,0,0,0.1235,0.1237,0.1268,0.119,0.1237,0.137,0.1309,0.1397,0.1407,0.1413,0.1433,0.1438,0.1459,0.1489,0.149,0.1592,0.1593,0,0,0.1228,0.1216,0.1262,0.1275,0.1283,0.1305,0.1313,0.1403,0.142,0.1434,0.1441,0.146,0.149,0.149,0.1592,0.1592,0,0,0,0.1205,0.1211,0.1242,0.127,0.1299,0.1309,0.1319,0.1416,0.1425,0.1442,0.1462,0.149,0.1491,0.1591,0.1592,0.1622,0,0,0,0.1201,0.1197,0.1238,0.1233,0.1297,0.1369,0.1329,0.1419,0.143,0.1461,0.149,0.1492,0.1591,0.1592,0.162,0.1615,0,0,0,0.118,0.1195,0.1213,0.1232,0.129,0.1368,0.1384,0.1423,0.1442,0.1489,0.1492,0.159,0.1591,0.1618,0.1613,0.1663,0,0,0,0.1159,0.1189,0.1213,0.1257,0.1288,0.1359,0.1384,0.1446,0.1488,0.1491,0.1591,0.1592,0.1618,0.1612,0.1661,0.1493,0,0,0,0.1178,0.1191,0.1215,0.1239,0.13,0.134,0.1414,0.1479,0.1504,0.1555,0.1559,0.1621,0.1613,0.1662,0.156,0,0,0,0,0.1207,0.1226,0.1249,0.1296,0.1347,0.1409,0.1471,0.1506,0.1582,0.1535,0.1635,0.1629,0.1659,0.1557,0.1597,0.1597,0.1597,0.1597,0.1597,0.1206,0.1236,0.1278,0.1328,0.1378,0.1463,0.1517,0.1577,0.1601,0.1644,0.1665,0.1735,0.1628,0.1687,0.1687,0.1687,0.1687,0.1688,0.1688,0.1219,0.1234,0.1293,0.1346,0.1412,0.1485,0.158,0.162,0.1709,0.1703,0.1733,0.1608,0.1691,0.169,0.169,0.1689,0.1689,0.1689,0.1689,0.1195,0.1204,0.1255,0.1329,0.1414,0.1507,0.159,0.1672,0.1734,0.1766,0.169,0.1762,0.1748,0.1807,0.1807,0.1808,0.1808,0.1808,0.1808,0.1137,0.1186,0.1226,0.131,0.1366,0.1461,0.1607,0.1666,0.1755,0.1698,0.1792,0.1775,0.1771,0.1756,0.1811,0.1811,0.181,0.181,0.181,0.1085,0.1119,0.1165,0.1215,0.1319,0.1367,0.153,0.1618,0.167,0.1668,0.1668,0.1674,0.1649,0.1648,0.1627,0.1647,0.1645,0.1643,0,0.1038,0.1061,0.111,0.1157,0.1201,0.1303,0.1345,0.1443,0.1531,0.148,0.1657,0.1651,0.1656,0.1622,0.1619,0.159,0,0,0,0.1,0.1025,0.1034,0.1095,0.1135,0.1218,0.1345,0.1347,0.1511,0.1535,0.1594,0.1607,0.1738,0.1821,0.1798,0.1793,0.1767,0,0]},{"header":{"parameterUnit":"m.s-1","parameterCategory":2,"la1":30.2992,"la2":30.254,"lo1":-89.0895,"lo2":-89.0443,"dy":0.0025,"dx":0.0025,"nx":19,"ny":19,"refTime":"2026-04-06T21:00:00:Z","depth":"4","parameterNumber":3,"parameterNumberName":"V-component_of_CURRENTS"},"data":[0,0,0,0.0144,0.0143,0.0088,0.0088,0.0049,0.0048,0,0,0,0,0,0,0,0,0,0,0,0.0167,0.0167,0.0144,0.0143,0.0088,0.0088,0.0049,0.0048,0,0,0,0,0,0,0,0,0,0,0,0.0167,0.0167,0.0167,0.0143,0.0088,0.0088,0.0049,0.0081,0,0,0,0,0,0,0,0,0,0,0.013,0.015,0.0167,0.0167,0.0142,0.0088,0.0088,0.0083,0.0079,0.0083,0,0.0079,0,0.0063,0.0047,0.0047,0,0,0,0.0139,0.0153,0.0137,0.0167,0.0142,0.0088,0.0112,0.0081,0.0077,0.0079,0.0078,0.0076,0.0062,0.0047,0.0047,0.0083,0.0083,0,0,0.0142,0.0158,0.0139,0.0135,0.0133,0.0114,0.011,0.0078,0.0079,0.0078,0.0075,0.0062,0.0047,0.0046,0.0082,0.0083,0,0,0,0.0153,0.016,0.0143,0.0137,0.0124,0.0112,0.0108,0.008,0.0074,0.0074,0.0061,0.0046,0.0046,0.0081,0.0082,0.0152,0,0,0,0.0155,0.0166,0.0145,0.0154,0.0125,0.0098,0.0111,0.0076,0.0072,0.0061,0.0046,0.0046,0.0081,0.0082,0.0149,0.0173,0,0,0,0.0169,0.0168,0.0163,0.0155,0.0132,0.0098,0.0089,0.0075,0.0064,0.0047,0.0046,0.008,0.0082,0.0146,0.0169,0.0183,0,0,0,0.0184,0.0184,0.0163,0.0166,0.0132,0.0132,0.0089,0.0081,0.007,0.0046,0.0081,0.0082,0.0145,0.0166,0.018,0.0171,0,0,0,0.0193,0.0186,0.0189,0.0169,0.0186,0.0139,0.0164,0.0125,0.0094,0.0091,0.0092,0.015,0.0168,0.0182,0.0252,0,0,0,0,0.0198,0.0205,0.0207,0.021,0.0201,0.021,0.017,0.0166,0.0161,0.0093,0.0158,0.0168,0.0174,0.0162,0.0089,0.0089,0.0089,0.0088,0.0088,0.0227,0.0229,0.0254,0.0261,0.0267,0.026,0.0267,0.0255,0.0214,0.0231,0.0231,0.0298,0.0291,0.024,0.0241,0.0241,0.0241,0.0242,0.0242,0.0262,0.028,0.0301,0.0325,0.0341,0.0363,0.0367,0.0347,0.0349,0.0312,0.0315,0.0245,0.0249,0.0247,0.0246,0.0246,0.0245,0.0245,0.0244,0.0285,0.0297,0.0317,0.0369,0.0418,0.0428,0.048,0.0458,0.0414,0.0419,0.0375,0.0337,0.0322,0.0409,0.0409,0.041,0.041,0.041,0.041,0.0296,0.0321,0.0364,0.0415,0.0461,0.0517,0.0541,0.0536,0.0486,0.045,0.0427,0.0354,0.0348,0.0331,0.0413,0.0413,0.0412,0.0412,0.0412,0.0321,0.0331,0.0397,0.0444,0.0549,0.0591,0.0617,0.0583,0.0568,0.0519,0.0459,0.0456,0.0422,0.0415,0.0398,0.0503,0.0503,0.0503,0,0.0335,0.0345,0.0434,0.0516,0.0601,0.0639,0.0648,0.0628,0.0549,0.0543,0.0546,0.0481,0.0477,0.0439,0.0432,0.0414,0,0,0,0.0361,0.0383,0.0449,0.0528,0.0625,0.0644,0.0652,0.0627,0.0572,0.0538,0.0508,0.0507,0.0464,0.0422,0.0362,0.0355,0.0323,0,0]}]]